Terminal Aerodrome Forecast
Issued by NWS Cleveland, OH

Home | Current Version | Previous Version | Graphics & Text | Print | Product List | Glossary On
Versions: 1 2 3 4 5 6 7 8 9 10 11 12 13 14 15 16 17 18 19 20
000
FTUS41 KCLE 041730
TAFERI
TAF
KERI 041730Z 0418/0518 VRB04KT P6SM OVC045
     FM042200 10008KT P6SM OVC050
     FM050200 14012KT P6SM SCT015 OVC035
      TEMPO 0502/0504 4SM -RASN BR OVC015
     FM050400 16012KT 5SM -RASN BR OVC015
      TEMPO 0504/0508 3SM -RASN BR OVC008
     FM050800 21012KT P6SM VCSH OVC015
     FM051400 26012KT P6SM OVC025=

USA.gov is the U.S. government's official web portal to all federal, state and local government web resources and services.